TITAN 3C TRANSTAGE DEB, 1642

Orbit data source: Space-Track

TITAN 3C TRANSTAGE DEB, 1642 is space debris in LEO originally from a launch on Fri, 15 Oct 1965 UTC launched from the Air Force Eastern Test Range (AFETR). Debris objects in space refer to the collection of defunct objects orbiting the Earth. Examples of debris include non-operational satellites, rocket bodies, and fragments generated from explosions, collisions, or faulty payload assembly.

Loading next visibility...
Identifier
1642, 1965-082D
Orbit
LEO
Country
Flag of USUS
Related business
Manufacturer
Unknown
Mission
Spacecraft
Bus & Motor
Unknown
Mass
Unknown
Launch date (UTC)
1965-10-15 (61 years ago)
Launch vehicle
Unknown
Launch site
Air Force Eastern Test Range (AFETR)
Object type
Payload
Rocket body
Debris
Shape & HBR
Unknown shape, 1.5 m
Radar Cross Section
Large (>1 m²)

Expand to show TLE details & history
Last TLE update: 1 week ago

TLE from 1 week ago
0 TITAN 3C TRANSTAGE DEB
1 01642U 65082D   26151.79003197  .00001440  00000-0  16134-3 0  9992
2 01642  32.0938 286.0187 0023015 181.6046 178.4533 14.84491287235143
Epoch: 2026-05-31T18:57Z
TLE epoch observation values (Epoch: 2026-05-31T18:57:38.762Z)
Latitude
-0.00003°
Longitude
112.32049°
Altitude
629.901 km
Speed
7.537 km/s
True Right ascension
19h 04m 04s
True Declination
0° 00' 00"
Sunlit
Object was in full shadow at epoch
Visualization orbit readout
Latitude
Unknown
Longitude
Unknown
Altitude
Unknown
Speed
Unknown
Apparent Right ascension
Unknown
Apparent Declination
Unknown
Sunlit
N/A
Visualization observer readout
Local Sidereal Time
13:21:05
Azimuth
Unknown
Elevation
Unknown
Doppler factor
Unknown
Orbital elements
Apogee altitude
634.923 km
Perigee altitude
602.716 km
Semi-major axis
6,996.957 km
Eccentricity
0.0023
Inclination
32.0938°
RAAN
286.0187°
Arg. of periapsis
181.6046°
True anomaly
178.4604°
Mean anomaly
178.4533°
Eccentric anomaly
178.45685°
Mean motion
3.70834 °/min
Orbital period
97.08 mins
BSTAR
0.00016134

Documentation

Showing up to 5 results
|